Brno, Czech Republic

1:35 PM CEST on June 27, 2017 (GMT +0200)
Turany

Weather History for LKTB - December, 2013

Change the Weather History Date:

Sunday, December 15, 2013

  Actual Average Record
Temperature  
Mean Temperature 38 °F -  
Max Temperature 43 °F 34 °F - ()
Min Temperature 33 °F 25 °F - ()
Degree Days  
Heating Degree Days 27    
Moisture  
Dew Point 33 °F    
Average Humidity 85    
Maximum Humidity 100    
Minimum Humidity 54    
Precipitation  
Precipitation 0.00 in 0.03 in - ()
Sea Level Pressure  
Sea Level Pressure 30.46 in    
Wind  
Wind Speed 3 mph ()    
Max Wind Speed 10 mph    
Max Gust Speed -    
Visibility 5.4 miles    
Events      
T = Trace of Precipitation, MM = Missing Value Source: Averaged Metar Reports

Daily Weather History Graph

Daily Weather History Graph

Search for Another Location

Airport or City:

Trip Planner

Search our weather history database for the weather conditions in past years. The results will help you decide how hot, cold, wet, or windy it might be!

Date:

Astronomy

Dec. 15, 2013 Rise Set
Actual Time 7:41 AM CET 3:55 PM CET
Civil Twilight 7:03 AM CET 4:32 PM CET
Nautical Twilight 6:23 AM CET 5:13 PM CET
Astronomical Twilight 5:44 AM CET 5:52 PM CET
Moon 2:53 PM CET (12/15) 5:34 AM CET (12/15)
Length of Visible Light 9h 29m
Length of Day
8h 14m
Waxing Gibbous, 97% of the Moon is Illuminated
Dec 15
Waxing Gibbous
Dec 17
Full
Dec 25
Last Quarter
Jan 1
New
Jan 8
First Quarter

Hourly Weather History & Observations

Time (CET) Temp. Windchill Dew Point Humidity Pressure Visibility Wind Dir Wind Speed Gust Speed Precip Events Conditions
12:00 AM 33.8 °F 30.8 °F 32.0 °F 93% 30.45 in 5.0 mi SSW 3.5 mph - N/A   Mostly Cloudy
12:30 AM 33.8 °F - 32.0 °F 93% 30.45 in 5.0 mi South 2.3 mph - N/A   Mostly Cloudy
1:00 AM 35 °F - 32 °F 86% 30.49 in 5 mi SSW 2.2 mph - -   Mist
1:00 AM 33.8 °F - 32.0 °F 93% 30.45 in 5.0 mi South 2.3 mph - N/A   Mostly Cloudy
1:30 AM 33.8 °F - 32.0 °F 93% 30.45 in 5.0 mi SSW 2.3 mph - N/A   Overcast
2:00 AM 33.8 °F - 32.0 °F 93% 30.45 in 5.0 mi Variable 2.3 mph - N/A   Mostly Cloudy
2:30 AM 33.8 °F 29.6 °F 32.0 °F 93% 30.45 in 5.0 mi South 4.6 mph - N/A   Overcast
3:00 AM 33.8 °F 29.6 °F 33.8 °F 100% 30.42 in 5.6 mi SSW 4.6 mph - N/A   Overcast
3:30 AM 35.6 °F - 33.8 °F 93% 30.42 in 5.0 mi West 1.2 mph - N/A   Overcast
4:00 AM 35.6 °F - 33.8 °F 93% 30.42 in 5.0 mi Calm Calm - N/A   Overcast
4:30 AM 35.6 °F - 33.8 °F 93% 30.45 in 5.0 mi NE 1.2 mph - N/A   Mostly Cloudy
5:00 AM 35.6 °F 32.8 °F 33.8 °F 93% 30.45 in 5.0 mi East 3.5 mph - N/A   Overcast
5:30 AM 35.6 °F 32.8 °F 33.8 °F 93% 30.45 in 5.0 mi East 3.5 mph - N/A   Overcast
6:00 AM 35.6 °F - 33.8 °F 93% 30.45 in 5.0 mi Calm Calm - N/A   Mostly Cloudy
6:30 AM 35.6 °F - 33.8 °F 93% 30.45 in 5.0 mi East 2.3 mph - N/A   Overcast
7:00 AM 35 °F - 33 °F 92% 30.51 in 4 mi SE 2.2 mph - -   Mist
7:00 AM 35.6 °F - 33.8 °F 93% 30.45 in 4.3 mi ENE 2.3 mph - N/A   Overcast
7:30 AM 35.6 °F - 33.8 °F 93% 30.45 in 3.1 mi Calm Calm - N/A   Overcast
8:00 AM 35.6 °F - 33.8 °F 93% 30.48 in 3.1 mi Variable 1.2 mph - N/A   Overcast
8:30 AM 35.6 °F 31.7 °F 33.8 °F 93% 30.48 in 2.5 mi SE 4.6 mph - N/A   Overcast
8:35 AM 35.6 °F 31.7 °F 33.8 °F 93% 30.48 in 3.1 mi South 4.6 mph - N/A   Partly Cloudy
9:00 AM 35.6 °F - 33.8 °F 93% 30.48 in 3.7 mi Variable 2.3 mph - N/A   Scattered Clouds
9:30 AM 37.4 °F - 35.6 °F 93% 30.48 in 3.7 mi Variable 2.3 mph - N/A   Mostly Cloudy
10:00 AM 37.4 °F 32.1 °F 35.6 °F 93% 30.48 in 6.2 mi SW 6.9 mph - N/A   Mostly Cloudy
10:30 AM 39.2 °F 35.0 °F 35.6 °F 87% 30.48 in 6.2 mi SW 5.8 mph - N/A   Mostly Cloudy
11:00 AM 41.0 °F 35.2 °F 33.8 °F 76% 30.48 in 6.2 mi West 9.2 mph - N/A   Mostly Cloudy
11:30 AM 41.0 °F 34.7 °F 33.8 °F 76% 30.48 in 6.2 mi WNW 10.4 mph - N/A   Mostly Cloudy
12:00 PM 41.0 °F 34.7 °F 33.8 °F 76% 30.45 in 6.2 mi WNW 10.4 mph - N/A   Mostly Cloudy
12:30 PM 41.0 °F 36.4 °F 32.0 °F 70% 30.45 in 6.2 mi WNW 6.9 mph - N/A   Mostly Cloudy
12:42 PM 41.0 °F 37.1 °F 32.0 °F 70% 30.45 in 6.2 mi WNW 5.8 mph - N/A   Mostly Cloudy
1:00 PM 43 °F - 32 °F 54% 30.48 in 16 mi West 6.7 mph - -   Scattered Clouds
1:00 PM 42.8 °F 38.6 °F 32.0 °F 66% 30.45 in 6.2 mi West 6.9 mph - N/A   Partly Cloudy
1:30 PM 41.0 °F 36.4 °F 32.0 °F 70% 30.45 in 6.2 mi WSW 6.9 mph - N/A   Partly Cloudy
2:00 PM 41.0 °F 36.4 °F 32.0 °F 70% 30.45 in - West 6.9 mph - N/A   Clear
2:30 PM 42.8 °F 38.6 °F 32.0 °F 66% 30.45 in 6.2 mi West 6.9 mph - N/A   Partly Cloudy
3:00 PM 42.8 °F 38.6 °F 32.0 °F 66% 30.45 in - West 6.9 mph - N/A   Clear
3:30 PM 41.0 °F 38.0 °F 32.0 °F 70% 30.45 in - WSW 4.6 mph - N/A   Clear
4:00 PM 41.0 °F 39.0 °F 33.8 °F 76% 30.45 in - NNE 3.5 mph - N/A   Clear
4:30 PM 39.2 °F 37.0 °F 33.8 °F 81% 30.45 in - ENE 3.5 mph - N/A   Clear
5:00 PM 39.2 °F 37.0 °F 33.8 °F 81% 30.48 in - East 3.5 mph - N/A   Clear
5:30 PM 37.4 °F 34.9 °F 33.8 °F 87% 30.45 in - East 3.5 mph - N/A   Clear
6:00 PM 39.2 °F 35.9 °F 33.8 °F 81% 30.45 in - ENE 4.6 mph - N/A   Clear
6:30 PM 37.4 °F 33.8 °F 33.8 °F 87% 30.45 in - NNE 4.6 mph - N/A   Clear
7:00 PM 38 °F - 34 °F 78% 30.51 in 7 mi ENE 4.5 mph - -   Mostly Cloudy
7:00 PM 37.4 °F 33.8 °F 33.8 °F 87% 30.45 in - NE 4.6 mph - N/A   Clear
7:30 PM 37.4 °F 34.9 °F 33.8 °F 87% 30.48 in - ENE 3.5 mph - N/A   Clear
8:00 PM 37.4 °F 34.9 °F 33.8 °F 87% 30.45 in - NE 3.5 mph - N/A   Clear
8:30 PM 37.4 °F 32.8 °F 33.8 °F 87% 30.48 in - NNE 5.8 mph - N/A   Clear
9:00 PM 35.6 °F - 32.0 °F 87% 30.48 in - WNW 2.3 mph - N/A   Clear
9:30 PM 35.6 °F - 32.0 °F 87% 30.48 in - NNE 1.2 mph - N/A   Clear
10:00 PM 35.6 °F - 32.0 °F 87% 30.48 in - North 1.2 mph - N/A   Clear
10:30 PM 35.6 °F - 33.8 °F 93% 30.48 in 6.2 mi Variable 1.2 mph - N/A   Scattered Clouds
11:00 PM 33.8 °F - 30.2 °F 87% 30.48 in - East 2.3 mph - N/A   Clear
11:30 PM 33.8 °F - 32.0 °F 93% 30.51 in 6.2 mi West 2.3 mph - N/A   Scattered Clouds